EW3693 Weather Reports


time (UTC)temp
F
wind
direction
speed
knots
gust
knots
rain 1hr
in
rain 24hr
in
rain mn
in
humidity
%
barometer
mb
20240418174026 45 293 8.7 10.4 0.00 0.02 0.02 78 1012.1
20240418173027 45 293 10.4 14.8 0.00 0.02 0.02 76 1012.0
20240418172046 46 293 11.3 14.8 0.00 0.02 0.02 74 1011.9
20240418171026 47 293 10.4 14.8 0.00 0.02 0.02 74 1011.9
20240418170026 47 293 11.3 17.4 0.00 0.02 0.02 74 1011.8
20240418165127 47 293 12.2 17.4 0.00 0.02 0.02 75 1011.8
20240418164026 48 293 13.0 16.5 0.00 0.02 0.02 75 1011.8
20240418163026 49 293 13.0 19.1 0.00 0.02 0.02 75 1011.7
20240418162026 49 293 13.0 20.0 0.00 0.02 0.02 77 1011.9
20240418161026 51 0 13.9 19.1 0.00 0.02 0.02 75 1011.7
20240418160027 51 270 9.6 13.9 0.00 0.02 0.02 80 1011.8
20240418155026 50 248 7.8 13.0 0.00 0.02 0.02 80 1011.8
20240418154027 50 248 6.1 9.6 0.00 0.02 0.02 81 1011.9
20240418153026 49 270 6.1 7.0 0.01 0.02 0.02 85 1012.1
20240418152026 48 270 7.8 13.0 0.01 0.02 0.02 84 1012.2
20240418151026 48 293 6.1 8.7 0.01 0.02 0.02 82 1012.2
20240418150026 49 293 7.0 9.6 0.01 0.02 0.02 80 1012.1
20240418145046 50 315 3.5 7.0 0.01 0.02 0.02 81 1012.3
20240418144106 47 315 2.6 4.3 0.01 0.02 0.02 86 1012.3
20240418143046 45 293 5.2 10.4 0.00 0.01 0.01 87 1012.5
20240418142026 46 293 15.6 20.9 0.00 0.01 0.01 80 1012.7
20240418141026 48 270 10.4 13.9 0.00 0.01 0.01 76 1012.4
20240418140026 47 293 11.3 15.6 0.00 0.01 0.01 77 1012.4
20240418135026 48 293 13.9 18.2 0.00 0.01 0.01 73 1012.4
20240418134027 50 270 7.8 11.3 0.00 0.01 0.01 68 1012.4
20240418133026 53 248 8.7 13.0 0.00 0.01 0.01 62 1012.4
20240418132026 52 293 8.7 10.4 0.00 0.01 0.01 64 1012.4
20240418131046 54 270 7.8 12.2 0.00 0.01 0.01 62 1012.5
20240418130027 58 248 8.7 13.0 0.00 0.01 0.01 56 1012.6
20240418125046 57 248 5.2 7.8 0.00 0.01 0.01 61 1012.6
20240418124026 56 270 8.7 12.2 0.00 0.01 0.01 59 1012.8
20240418123047 59 270 8.7 13.9 0.00 0.01 0.01 60 1012.8
20240418122025 55 270 6.1 9.6 0.00 0.01 0.01 68 1012.8
20240418121025 52 270 7.0 10.4 0.00 0.01 0.01 64 1013.0
20240418120047 54 248 8.7 12.2 0.00 0.01 0.01 64 1013.0
20240418115045 55 270 10.4 13.9 0.00 0.01 0.01 58 1013.0
20240418114025 51 270 7.0 11.3 0.00 0.01 0.01 68 1013.1
20240418113026 54 270 8.7 14.8 0.00 0.01 0.01 63 1013.1
20240418112046 50 293 7.8 10.4 0.00 0.01 0.01 66 1013.2
20240418111026 51 293 7.8 12.2 0.00 0.01 0.01 66 1013.3
20240418110026 51 315 8.7 12.2 0.00 0.01 0.01 66 1013.2
20240418105025 54 270 7.8 10.4 0.00 0.01 0.01 71 1013.3
20240418104025 50 270 8.7 13.0 0.00 0.01 0.01 67 1013.3
20240418103046 51 270 6.1 10.4 0.00 0.01 0.01 70 1013.3
20240418102025 49 270 7.0 10.4 0.00 0.01 0.01 71 1013.3
20240418101027 50 293 7.0 12.2 0.00 0.01 0.01 65 1013.4
20240418100028 53 248 6.1 8.7 0.00 0.01 0.01 62 1013.5
20240418095027 54 248 7.0 10.4 0.00 0.01 0.01 63 1013.6
20240418094027 53 248 4.3 9.6 0.00 0.01 0.01 67 1013.5
20240418093028 49 270 5.2 8.7 0.00 0.01 0.01 73 1013.6
20240418092027 49 270 7.8 9.6 0.00 0.01 0.01 71 1013.7
20240418091027 52 270 7.8 11.3 0.00 0.01 0.01 67 1013.6
20240418090048 53 248 7.8 10.4 0.00 0.01 0.01 69 1013.6
20240418085027 52 293 6.1 10.4 0.00 0.01 0.01 67 1013.6
20240418084027 51 293 7.0 10.4 0.00 0.01 0.01 70 1013.6
20240418083028 52 270 7.0 9.6 0.00 0.01 0.01 70 1013.6
20240418082025 52 248 7.0 9.6 0.00 0.01 0.01 74 1013.6
20240418081027 51 248 7.0 10.4 0.00 0.01 0.01 72 1013.6
20240418080048 50 270 6.1 10.4 0.00 0.01 0.01 75 1013.4
20240418075047 50 270 7.0 8.7 0.00 0.01 0.01 78 1013.5
20240418074027 48 293 7.8 9.6 0.00 0.01 0.01 75 1013.4
20240418073028 48 270 7.8 9.6 0.00 0.01 0.01 82 1013.4
20240418072027 47 270 7.0 9.6 0.00 0.01 0.01 85 1013.3
20240418071027 47 270 7.0 8.7 0.00 0.01 0.01 89 1013.3
20240418070027 46 270 5.2 7.8 0.00 0.01 0.01 91 1013.2
20240418065048 44 293 5.2 6.1 0.00 0.01 0.01 93 1013.1
20240418064027 43 293 4.3 6.1 0.00 0.01 0.01 95 1013.2
20240418063027 42 293 3.5 5.2 0.01 0.01 0.01 96 1013.1
20240418062027 40 270 2.6 3.5 0.01 0.01 0.01 96 1013.1
20240418061027 39 270 1.7 2.6 0.01 0.01 0.01 97 1013.0
20240418060027 37 0.0 0.0 0.01 0.01 0.01 97 1012.9
20240418055026 36 0.0 0.9 0.01 0.01 0.01 97 1012.8
20240418054028 34 0.0 0.0 0.01 0.01 0.01 97 1012.7
20240418053027 33 0.0 0.0 0.00 0.00 0.00 96 1012.7
20240418052026 32 0.0 0.0 0.00 0.00 0.00 96 1012.6
20240418051027 31 0.0 0.0 0.00 0.00 0.00 96 1012.5
20240418050027 31 0.0 0.0 0.00 0.00 0.00 96 1012.4
20240418045026 31 0.0 0.0 0.00 0.00 0.00 96 1012.4
20240418044026 31 113 0.9 1.7 0.00 0.00 0.00 96 1012.3
20240418043027 30 0.0 0.0 0.00 0.00 0.00 96 1012.1
20240418042026 30 0.0 0.0 0.00 0.00 0.00 96 1011.9
20240418041026 30 0.0 0.9 0.00 0.00 0.00 96 1011.9
20240418040027 30 293 0.9 1.7 0.00 0.00 0.00 96 1011.8
20240418035026 30 293 1.7 2.6 0.00 0.00 0.00 95 1011.8
20240418034027 30 315 0.9 1.7 0.00 0.00 0.00 95 1011.7
20240418033026 31 0.0 0.9 0.00 0.00 0.00 96 1011.7
20240418032027 31 315 1.7 2.6 0.00 0.00 0.00 96 1011.6
20240418031027 30 293 3.5 4.3 0.00 0.00 0.00 96 1011.5
20240418030026 30 0 1.7 2.6 0.00 0.00 0.00 95 1011.4
20240418025048 30 0.0 1.7 0.00 0.00 0.00 95 1011.4
20240418024027 31 0.0 0.0 0.00 0.00 0.00 95 1011.4
20240418023026 31 0.0 0.0 0.00 0.00 0.00 95 1011.3
20240418022027 32 0.0 0.0 0.00 0.00 0.00 95 1011.3
20240418021026 33 0.0 0.0 0.00 0.00 0.00 95 1011.2
20240418020026 33 0.0 1.7 0.00 0.00 0.00 95 1011.3
20240418015027 33 0 2.6 3.5 0.00 0.00 0.00 95 1011.3
20240418014026 33 0 1.7 2.6 0.00 0.00 0.00 95 1011.2
20240418013026 33 0 1.7 2.6 0.00 0.00 0.00 95 1011.1
20240418012026 34 0 1.7 1.7 0.00 0.00 0.00 95 1011.0
20240418011107 34 0 1.7 2.6 0.00 0.00 0.00 95 1011.0
20240418010026 33 0 1.7 2.6 0.00 0.00 0.00 95 1011.0
20240418005046 33 0 1.7 2.6 0.00 0.00 0.00 95 1011.0
20240418004027 34 0 1.7 2.6 0.00 0.00 0.00 95 1011.0
20240418003026 34 338 2.6 3.5 0.00 0.00 0.00 95 1011.0
20240418002026 34 0 2.6 3.5 0.00 0.00 0.00 95 1010.9
20240418001027 35 0 0.9 1.7 0.00 0.00 0.00 95 1010.8
20240418000026 35 0 1.7 2.6 0.00 0.01 0.00 95 1010.8
20240417235046 35 0 2.6 3.5 0.00 0.01 0.00 95 1010.8
20240417234026 35 338 3.5 4.3 0.00 0.01 0.00 95 1010.7
20240417233026 34 0 2.6 3.5 0.00 0.01 0.00 95 1010.7
20240417232026 34 0 2.6 3.5 0.00 0.01 0.00 95 1010.7
20240417231027 34 0 2.6 3.5 0.00 0.01 0.00 95 1010.6
20240417230046 35 0 1.7 3.5 0.00 0.01 0.00 94 1010.5
20240417225027 35 0 2.6 4.3 0.00 0.01 0.00 95 1010.4
20240417224026 35 0 2.6 4.3 0.00 0.01 0.00 95 1010.4
20240417223026 35 0 2.6 3.5 0.00 0.01 0.00 94 1010.3
20240417222026 34 0 2.6 4.3 0.00 0.01 0.00 94 1010.2
20240417221046 34 0 2.6 3.5 0.00 0.01 0.00 94 1010.1
20240417220026 34 0 1.7 3.5 0.00 0.01 0.01 94 1010.0
20240417215026 34 0 0.9 1.7 0.00 0.01 0.01 94 1009.8
20240417214026 35 0 2.6 3.5 0.00 0.01 0.01 94 1009.7
20240417213026 34 0 1.7 2.6 0.00 0.01 0.01 94 1009.6
20240417212027 35 23 1.7 3.5 0.00 0.01 0.01 94 1009.5
20240417211026 35 23 1.7 3.5 0.00 0.01 0.01 94 1009.4
20240417210026 35 23 1.7 3.5 0.00 0.01 0.01 94 1009.3
20240417205026 35 0 1.7 3.5 0.00 0.01 0.01 94 1009.2
20240417204027 35 0 1.7 4.3 0.00 0.01 0.01 93 1009.2
20240417203026 35 0 2.6 3.5 0.00 0.01 0.01 93 1009.2
20240417202027 35 0 3.5 4.3 0.00 0.01 0.01 93 1009.0
20240417201106 35 0 1.7 3.5 0.00 0.01 0.01 93 1008.9
20240417200026 35 338 1.7 3.5 0.00 0.01 0.01 92 1008.8
20240417195046 36 338 1.7 2.6 0.00 0.01 0.01 92 1008.7
20240417194046 36 0 2.6 4.3 0.00 0.01 0.01 91 1008.7
20240417193027 37 338 2.6 4.3 0.00 0.01 0.01 90 1008.6
20240417192025 38 338 3.5 5.2 0.00 0.01 0.01 90 1008.5
20240417191026 38 0 2.6 4.3 0.00 0.01 0.01 90 1008.4
20240417190025 38 0 2.6 5.2 0.00 0.01 0.01 90 1008.3
20240417185046 38 338 2.6 4.3 0.00 0.01 0.01 89 1008.1
20240417184026 39 338 3.5 4.3 0.00 0.01 0.01 89 1007.9
20240417183026 39 338 3.5 4.3 0.00 0.01 0.01 89 1007.7
20240417182026 40 0 1.7 4.3 0.00 0.01 0.01 88 1007.6
20240417181025 41 0 2.6 4.3 0.00 0.01 0.01 86 1007.6
20240417180026 42 23 1.7 3.5 0.00 0.01 0.01 84 1007.4
20240417175025 43 23 1.7 3.5 0.00 0.01 0.01 81 1007.3